Location: Holmbach
(49.5093°N, 8.8411°E)
Time: 04:54:08
(UTC+00:00)

ARIANE 5 R/B - Pass Details

Date: 17 June 2025
Orbit: 615 x 647 km, 98.0° (Epoch: 10 July)

Event Time Altitude Azimuth Distance (km) Brightness Sun altitude
Exits shadow 21:46:15 20° 134° (SE) 1,503 4.0 -13.8°
Maximum altitude 21:49:04 46° 69° (ENE) 874 3.3 -14.0°
Drops below altitude 10° 21:53:21 10° 357° (N) 2,057 6.4 -14.2°
Sets 21:55:38 0° 351° (N) 2,974 7.8 -14.4°
